Regional Weather Roundup
Issued by NWS

Home | Current Version | Previous Version | Graphics & Text | Print | Product List | Glossary On
Versions: 1 2 3 4 5 6 7 8 9 10 11 12 13 14 15 16 17 18 19 20 21 22 23 24 25 26 27 28 29 30 31 32 33 34 35 36 37 38 39 40 41 42 43 44 45 46 47 48 49 50
965
ASUS43 KDTX 302101
RWRMI
MICHIGAN HOURLY REGIONAL WEATHER ROUNDUP
NATIONAL WEATHER SERVICE DETROIT/PONTIAC MI
500 PM EDT THU MAR 30 2017

NOTE: "FAIR" INDICATES FEW OR NO CLOUDS BELOW 12,000 FEET WITH NO
SIGNIFICANT WEATHER AND/OR OBSTRUCTION TO VISIBILITY.

MIZ047>049-052>055-059>063-066>070-074>076-081>083-302200-
SOUTHEAST LOWER MICHIGAN

CITY           SKY/WX    TMP DP  RH WIND       PRES   REMARKS
ADRIAN         LGT RAIN  38  37  97 E23G31    29.69F FOG     WCI  27
ALMA           CLOUDY    37  36  99 E23G31    29.80F WCI  25
ANN ARBOR      HVY RAIN  39  39 100 S12       29.88R FOG     WCI  32
BAD AXE        LGT SNOW  34  32  93 E15G21    29.91F WCI  24
CARO           RAIN      35  33  95 E12G21    29.89R WCI  26
DETROIT CITY   LGT RAIN  38  37  97 E17G24    29.82F FOG     WCI  28
DETROIT        RAIN      40  38  93 E14       29.82F FOG     WCI  32
FLINT          LGT RAIN  37  35  92 NE13      29.84F WCI  29
GROSSE ILE     LGT SNOW  39  37  94 E8G21     29.82F WCI  33
HILLSDALE      CLOUDY    39  37  93 E15G25    29.66F WCI  31
HOWELL         LGT RAIN  39  36  91 E9G17     29.83R WCI  32

CITY           SKY/WX    TMP DP  RH WIND       PRES   REMARKS
JACKSON        LGT RAIN  40  40 100 E21G30    29.68F WCI  30
LAMBERTVILLE   LGT RAIN  40  38  91 E14G24    29.74F WCI  32
LANSING        LGT RAIN  39  36  89 E18G25    29.78F FOG     WCI  30
LAPEER         RAIN      35  35  97 E10G16    29.86F WCI  28
MASON          LGT SNOW  39  38  96 E17G25    29.73F WCI  29
MONROE         LGT RAIN  38  38  99 E15G21    29.79R WCI  30
MT. CLEMENS    HVY RAIN  39  39  99 E17       29.83F FOG     WCI  30
PONTIAC        LGT RAIN  38  35  89 E15G21    29.80F FOG     WCI  29
PORT HOPE        N/A     34  33  96 E13       29.95F WCI  25
PORT HURON     RAIN      37  34  87 E8G16     29.90R WCI  31
TRI CITIES     LGT RAIN  37  35  92 E22       29.89F FOG     WCI  26
MIDLAND        LGT SNOW  35  33  93 NE21G29   29.89F WCI  23
TROY           LGT RAIN  38  36  91 E12G18    29.85F WCI  31
SAGINAW HB     RAIN      36  32  87 NE14      29.91R WCI  27
$$
MIZ043>046-050>051-056>058-064>065-071>073-077>080-302200-
SOUTHWEST LOWER MICHIGAN

CITY           SKY/WX    TMP DP  RH WIND       PRES   REMARKS
BATTLE CREEK   CLOUDY    41  39  93 E16G22    29.69F
BENTON HARBOR  RAIN      46  41  82 S7        29.72R
BIG RAPIDS     LGT SNOW  36  33  90 E20G28    29.78F WCI  25
COLDWATER      CLOUDY    42  40  93 E13       29.68R
FREMONT        LGT RAIN  37  35  92 E18G26    29.74R WCI  27
HOLLAND        LGT RAIN  40  37  89 E15G23    29.70R WCI  32
GRAND RAPIDS   CLOUDY    38  38 100 E28G37    29.70F WCI  26
IONIA          CLOUDY    37  35  94 E22G29    29.75F WCI  25
KALAMAZOO      LGT RAIN  43  38  82 E14G22    29.68F
LUDINGTON      DRIZZLE   40  37  87 E17G29    29.75F WCI  31
MARSHALL       CLOUDY    41  40  97 E12G18    29.69R
MOUNT PLEASANT LGT RAIN  34  33  94 E18G25    29.83F WCI  23
MUSKEGON       LGT RAIN  40  37  89 E20G28    29.71S FOG     WCI  30
SOUTH HAVEN    LGT RAIN  43  41  93 W13G37    29.77R
$$
MIZ016>042-302200-
NORTHERN LOWER MICHIGAN

CITY           SKY/WX    TMP DP  RH WIND       PRES   REMARKS
ALPENA         CLOUDY    37  27  67 E15G21    30.01F WCI  28
BEAVER ISLAND  LGT SNOW  34  33  96 E15G21    29.98F WCI  24
BELLAIRE       FLURRIES  37  32  81 NE14      29.92F WCI  28
CADILLAC       LGT SNOW  35  33  93 E21G30    29.82F WCI  24
CHARLEVOIX     CLOUDY    37  31  77 E16G23    29.97F WCI  28
FRANKFORT      CLOUDY    40  33  78 E13G18    29.83F WCI  32
GAYLORD        LGT SNOW  35  28  75 E10G18    29.93F VSB 1   WCI  27
GRAYLING       LGT SNOW  36  30  80 E16G25    29.91F WCI  26
HARBOR SPRINGS LGT SNOW  34  32  92 E17G23    29.97F WCI  24
HOUGHTON LAKE  FLURRIES  35  30  82 E20G30    29.90F WCI  24
MANISTEE       CLOUDY    40  35  83 E21G29    29.78F WCI  30
OSCODA         FLURRIES  35  32  88 NE14      29.97F WCI  26
PELLSTON       LGT SNOW  35  29  78 E14G23    30.00S WCI  26
ROGERS CITY    CLOUDY    36  29  76 E14G21    30.04F WCI  27
TRAVERSE CITY  CLOUDY    39  34  82 E10G20    29.88F WCI  32
$$
MIZ007>008-015-302200-
EASTERN UPPER MICHIGAN

CITY           SKY/WX    TMP DP  RH WIND       PRES   REMARKS
KINROSS        CLOUDY    39  22  50 E15       30.03F WCI  31
NEWBERRY       CLOUDY    40  22  48 SE17G23   30.00S WCI  32
S. S. MARIE    CLOUDY    40  23  50 SE9G17    30.03F WCI  34
MUNISING         N/A     43  25  49 E15       29.98F
$$
MIZ004>006-011>014-085-302200-
CENTRAL UPPER MICHIGAN

CITY           SKY/WX    TMP DP  RH WIND       PRES   REMARKS
MANISTIQUE     CLOUDY    37  30  75 E16G23    29.98F WCI  27
ESCANABA       LGT RAIN  35  32  88 NE12G17   29.97F WCI  27
MENOMINEE      LGT RAIN  35  33  92 NE16      29.92F WCI  25
SAWYER-GWINN   CLOUDY    37  32  81 SE9       29.96F WCI  31
$$
MIZ001>003-009>011-084-302200-
WESTERN UPPER MICHIGAN

CITY           SKY/WX    TMP DP  RH WIND       PRES   REMARKS
IRON MOUNTAIN  CLOUDY    36  31  82 E6        29.91F WCI  31
HOUGHTON       CLOUDY    37  27  67 E16       29.96F WCI  28
COPPER HARBOR    N/A     39  28  64 SE9       30.01S WCI  33
IRONWOOD       CLOUDY    47  28  47 NE8       29.89F
$$

ABBREVIATIONS USED IN REMARKS
   TC - TEMPERATURE IN CELSIUS
  WCI - WIND CHILL INDEX
   HX - HEAT INDEX
  VSB - VISIBILITY





USA.gov is the U.S. government's official web portal to all federal, state and local government web resources and services.